STARLINK-32475, 61728

Orbit data source: Space-Track

STARLINK-32475, 61728 is a payload satellite owned by SpaceX/Seattle (US) in LEO that was launched on Wed, 30 Oct 2024 UTC via an FALCON 9 launch vehicle from the Air Force Eastern Test Range (AFETR). Payloads include a variety of satellites, spacecraft, and rockets equipped with specific instruments for various scientific and technological missions. These include communications satellites like Starlink; space stations such as the ISS; scientific satellites like the Hubble; Earth observation satellites from companies like Planet Labs, Umbra, and HawkEye 360; GPS; miniature CubeSats for education and research; and military/defense satellites.

Loading next visibility...
STARLINK-32475 details
Identifier
61728, 2024-196X
Orbit
LEO
Last TLE update2 days ago
Origin
Flag of USSpaceX/Seattle (US)
ManufacturerSpaceX/Seattle
MissionOperational spacecraft
Bus & MotorSTARLINK V2M, Unknown motor
Mass730 kg wet, ~700 kg dry
Launch date (UTC)
2024-10-30 (1 month ago)
Launch vehicle
FALCON 9
Launch site
Air Force Eastern Test Range (AFETR)
Object type
Payload
Rocket body
Debris
Shape & HBRUnknown
Radar Cross SectionLarge (>1 m²)

Expand to show TLE details & history

TLE from 2 days ago
0 STARLINK-32475
1 61728U 24196X   24347.43874616  .00003450  00000-0  96212-4 0  9991
2 61728  53.1619  44.9277 0000839  92.3842 267.7259 15.39608571  7877
Epoch: 2024-12-12T10:31Z
Definitive object data (Epoch: 2024-12-12T10:31:47.668Z)
Latitude-0°
Longitude165.36001°
Altitude448.192 km
Speed7.645 km/s
True Right ascension02h 59m 42s
True Declination0° 00' 00"
Sunlit
Object was in full shadow at TLE epoch
Visualization TLE readout
Latitude48.53086°
Longitude-144.2815°
Altitude452.208 km
Speed7.647 km/s
Apparent Right ascension07h 49m 52s
Apparent Declination6° 38' 56"
Sunlit
Object is in full shadow
Visualization observer readout
Local Sidereal Time21:11:37
Azimuth26.821° NE
Elevation-39.76°
Doppler factor1
Orbital elements
Apogee altitude448.096 km
Perigee altitude446.95 km
Semi-major axis6,825.66 km
Eccentricity0.0000839
Inclination53.1619°
RAAN44.9277°
Arg. of periapsis92.3842°
True anomaly267.71629°
Mean anomaly267.7259°
Eccentric anomaly267.7211°
Mean motion3.84881 °/min
BSTAR0.000096212
Orbital period93.54 mins
Loading maneuver chart data...
Loading historical data...
Loading historical data...
Loading historical data...
Loading historical data...
Loading historical data...
Loading historical data...
Loading historical data...

STARLINK-32475 Visibility forecast

Observer location: undefined°, undefined

Span
Click to sort rows by Start time (UTC) header in descending order
Start Az.
Max El. time (UTC)
Max El. Az.
Max El.
End time (UTC)
End Az.
6 mins2024-12-14 06:19:40.877Z225.929° WSW2024-12-14 06:22:40.877Z179.858° S44.575°2024-12-14 06:25:40.877Z51.884° ENE
5 mins2024-12-14 12:53:40.877Z324.132° NNW2024-12-14 12:55:40.877Z72.497° E40.606°2024-12-14 12:58:40.877Z120.105° SE
|